Location: Cubrisole
(45.3333°N, 4.2667°E)
Time: 05:03:16
(UTC+00:00)

Daily predictions for brighter satellites

Satellite Brightness Start Highest point End
(mag) Time Altitude Azimuth Time Altitude Azimuth Time Altitude Azimuth
USA 234 4.4 01:59:17 10° E 02:03:26 38° ENE 02:03:26 38° ENE
Cosmos 2322 Rocket 4.2 02:20:05 22° NNE 02:20:05 22° NNE 02:22:00 10° NNE
Cosmos 2360 Rocket 3.7 02:30:10 32° NE 02:30:10 32° NE 02:33:08 10° NNE
COSMOS 2455 4.0 02:31:45 39° E 02:31:45 39° E 02:36:08 10° NE
USA 238 DEB 4.5 02:37:11 37° N 02:39:43 51° NE 02:46:52 10° ESE
USA 238 4.5 02:37:16 36° N 02:39:49 51° NE 02:46:57 10° ESE
Cosmos 2278 Rocket 3.9 03:00:43 10° N 03:05:42 30° NE 03:10:37 10° ESE
NOSS 3-2 (A) 4.4 03:01:02 23° NNW 03:06:01 62° NE 03:14:16 10° SE
Cosmos 2333 Rocket 3.0 03:06:30 43° SE 03:07:23 46° ESE 03:12:48 10° NE
ADEOS 4.5 03:03:01 10° NNE 03:08:03 45° E 03:09:17 38° SE
USA 267 3.2 03:07:55 10° NE 03:14:25 68° NNW 03:14:41 67° NW
ADEOS II 3.9 03:14:13 10° N 03:15:59 20° NNW 03:15:59 20° NNW
Cosmos 2333 4.1 03:22:16 84° E 03:22:16 84° E 03:27:51 10° NNE
ARIANE 5 R/B 4.5 03:23:30 10° N 03:24:45 17° NNW 03:24:45 17° NNW
NOSS 3-2 (C) 4.5 03:21:50 13° NNW 03:28:34 60° NE 03:36:48 10° SE
SL-16 R/B 3.9 03:30:46 21° NNW 03:30:46 21° NNW 03:33:35 10° N
CZ-2C R/B 4.3 03:25:17 10° NNE 03:29:54 31° E 03:34:27 10° SSE
Cosmos 2322 3.7 03:31:45 68° NW 03:31:45 68° NW 03:37:15 10° NNE
BREEZE-M DEB (TANK) 4.0 03:37:12 26° SSE 03:37:12 26° SSE 03:38:29 10° SE
Cosmos 1709 Rocket 3.9 03:36:00 49° SSW 03:37:50 78° W 03:44:13 10° N
Cosmos 2219 Rocket 2.1 03:38:52 53° SSW 03:40:14 82° ESE 03:45:51 10° NNE
Cosmos 2237 Rocket 3.5 03:42:09 10° S 03:47:20 38° ESE 03:52:34 10° NE
USA 234 3.2 03:42:00 10° SE 03:48:29 64° SW 03:50:49 41° WNW
NOSS 2-2 (D) 3.4 03:49:47 66° NE 03:49:47 66° NE 03:53:24 10° NE
IDEFIX/ARIANE 42P 2.4 03:49:02 10° N 03:54:17 73° WNW 03:55:58 43° SW
Cosmos 292 Rocket 4.1 03:51:08 10° NNW 03:55:54 64° ENE 04:00:39 10° SSE
COSMOS 2428 2.6 03:56:23 44° SW 03:58:14 74° WNW 04:03:56 10° NNE
Cosmos 44 3.9 03:55:54 19° NNW 03:58:45 47° NE 04:02:55 10° SE
PAYLOAD A 4.2 03:54:58 10° NNE 03:59:46 68° ESE 04:04:43 10° S
Meteor 1-31 Rocket 4.1 03:56:46 10° NNE 04:00:22 39° E 04:03:57 10° S
Cosmos 1992 Rocket 4.1 04:01:04 48° WSW 04:01:04 48° WSW 04:05:36 10° S
Cosmos 2322 Rocket 3.9 04:01:54 16° NW 04:01:54 16° NW 04:04:51 10° N
H-2A R/B 2.4 03:58:54 10° NNE 04:03:03 89° WNW 04:04:58 32° SSW
Cosmos 1980 4.3 03:58:27 10° S 04:03:56 55° ESE 04:09:26 10° NE
BREEZE-M DEB (TANK) 3.4 04:04:47 33° NE 04:04:47 33° NE 04:06:16 10° ENE
ATLAS 3B R/B 3.1 04:01:19 10° NNW 04:07:58 62° NE 04:14:45 10° SE
Cosmos 1470 3.0 04:04:13 10° N 04:08:08 68° E 04:12:01 10° SSE
Cosmos 1842 3.5 04:11:45 48° NW 04:11:45 48° NW 04:15:08 10° N
Cosmos 1707 3.8 04:07:48 10° SSE 04:11:33 47° E 04:15:20 10° NNE
Cosmos 2360 Rocket 3.4 04:11:57 24° NW 04:12:01 24° NW 04:16:33 10° N
Cosmos 2251 Rocket 4.1 04:12:41 36° WNW 04:13:12 37° WNW 04:18:11 10° N
Cosmos 2074 Rocket 4.0 04:08:00 10° S 04:14:14 83° E 04:20:29 10° N
NOSS 0 Rocket 4.0 04:09:28 10° SSW 04:15:37 79° ESE 04:21:50 10° NNE
COSMOS 2455 3.5 04:14:56 32° WNW 04:16:28 37° NW 04:22:04 10° NNE
PSLV R/B 4.0 04:15:42 10° N 04:19:29 37° WNW 04:19:29 37° WNW
Cosmos 2181 Rocket 4.2 04:14:58 10° NNW 04:21:03 48° W 04:27:01 10° SSW
CENTAUR R/B 3.2 04:13:29 10° NW 04:21:30 82° NE 04:30:14 10° SE
Cosmos 1025 Rocket 3.0 04:20:29 31° SW 04:22:15 53° WNW 04:26:27 10° N
Cosmos 2228 4.3 04:18:12 10° N 04:22:17 42° ENE 04:26:19 10° SSE
OE (NEXTSAT) 4.4 04:23:10 52° WSW 04:23:41 60° SSW 04:27:09 10° ESE
NOSS 2-2 (C) 3.7 04:25:19 38° WNW 04:25:55 41° NW 04:29:57 10° NNE
ATLAS 2AS CENTAUR R/B 3.0 04:19:17 13° SW 04:26:33 84° NW 04:34:39 10° NE
USA 238 DEB 4.1 04:24:44 14° NW 04:30:40 44° WSW 04:37:36 10° S
USA 238 4.1 04:24:48 13° NW 04:30:46 45° WSW 04:37:42 10° S
Cosmos 921 Rocket 3.1 04:28:39 10° NNW 04:32:48 48° WSW 04:36:52 10° S
Cosmos 489 Rocket 4.4 04:31:51 10° NNW 04:38:02 66° WSW 04:44:14 10° S
Cosmos 1536 Rocket 4.2 04:37:00 27° WSW 04:38:17 32° WNW 04:42:11 10° N
SL-16 R/B 3.8 04:33:52 10° S 04:39:01 38° ESE 04:44:11 10° NE
Cosmos 1726 3.8 04:39:07 10° N 04:42:32 36° ENE 04:45:56 10° SE
Aureole 1 Rocket 4.4 04:42:41 17° WSW 04:46:43 33° WNW 04:51:19 10° N
SKYMED 2 3.8 04:43:08 10° SSE 04:47:27 73° ENE 04:51:48 10° N
Cosmos 1190 Rocket 4.0 04:42:19 10° SSW 04:47:38 78° WNW 04:52:58 10° NNE
CZ-4B R/B 2.8 04:43:49 10° N 04:47:52 59° WNW 04:51:41 10° SSW
Cosmos 2297 4.5 04:42:39 10° NNW 04:48:21 56° ENE 04:53:58 10° SE
Cosmos 2278 Rocket 2.4 04:44:32 10° NW 04:50:01 49° WSW 04:55:26 10° S
Cosmos 407 Rocket 3.4 04:45:29 10° SSW 04:50:35 66° WNW 04:55:43 10° NNE
Cosmos 2333 Rocket 3.0 04:48:34 18° WSW 04:51:50 32° NW 04:56:54 10° N
Meteor 1-4 Rocket 2.3 04:52:49 10° SSW 04:56:20 74° W 04:59:50 10° N
USA 267 4.1 04:50:59 10° NE 04:56:48 36° NNW 05:02:02 13° WNW
Cosmos 1892 Rocket 3.8 04:52:31 10° S 04:56:57 74° E 05:01:22 10° NNE
GP-B 3.1 04:52:53 10° S 04:57:18 87° E 05:01:47 10° N
ERBS 2.6 04:55:24 20° WSW 04:57:26 49° NW 05:00:45 10° NE
Cosmos 1437 Rocket 3.5 05:00:12 10° S 05:03:54 55° E 05:07:37 10° NNE
PSLV R/B 3.6 05:01:03 10° N 05:04:45 62° WNW 05:08:23 10° SSW
Cosmos 1953 2.7 05:03:21 10° NNW 05:07:10 41° W 05:10:56 10° SSW
CZ-2C R/B 3.1 05:03:23 10° N 05:08:09 37° WNW 05:12:51 10° SW
COBE Rocket 3.9 05:03:59 10° S 05:08:57 68° W 05:14:05 10° NNW
Helios 1A Rocket 3.2 05:05:59 10° NNE 05:10:10 74° ESE 05:14:19 10° S
Cosmos 1606 Rocket 3.7 05:06:21 10° NNW 05:10:32 48° W 05:14:41 10° SSW
Cosmos 2154 Rocket 4.0 05:09:18 10° SSW 05:15:23 58° WNW 05:21:32 10° N
ALOS 2.4 05:15:36 10° NNE 05:20:18 80° ESE 05:24:58 10° S
Okean 1-7 Rocket 3.6 05:16:04 10° SSW 05:20:28 63° W 05:24:56 10° N
MOS 1-B 4.4 05:14:41 10° N 05:20:28 68° WNW 05:26:14 10° SSW
Cosmos 389 Rocket 3.6 05:20:45 10° SW 05:23:30 22° WNW 05:26:17 10° NNW
Cosmos 2219 Rocket 3.6 05:20:54 10° W 05:24:54 20° NW 05:28:55 10° N
Cosmos 1954 Rocket 4.0 05:21:20 10° SSW 05:26:33 64° WNW 05:31:45 10° NNE
CZ-4B DEB 4.2 05:23:37 10° N 05:29:04 66° WNW 05:34:27 10° SSW
SJ-12 4.0 05:27:11 10° N 05:31:11 54° WNW 05:35:11 10° SSW
Cosmos 2237 Rocket 2.8 05:26:10 10° WSW 05:31:23 37° NW 05:36:41 10° NNE
RESURS DK-1 2.3 05:27:18 10° SSW 05:31:26 80° WNW 05:35:36 10° NNE
PAYLOAD B 4.2 05:26:03 10° N 05:31:36 71° WNW 05:37:06 10° SSW
IDEFIX/ARIANE 42P 4.4 05:31:10 10° NW 05:32:56 12° NW 05:34:42 10° WNW
Meteor 1-31 Rocket 4.3 05:31:59 10° NNW 05:34:30 17° WNW 05:37:01 10° WSW
Cosmos 1626 Rocket 4.1 05:30:50 10° S 05:35:05 64° E 05:39:23 10° NNE
COSMO-SKYMED 1 3.2 05:31:40 10° SSW 05:35:38 35° W 05:39:39 10° NNW
Nadezhda 3 Rocket 4.5 05:30:13 10° NNW 05:36:05 40° W 05:41:53 10° SSW
NOSS 3-4 (A) 3.8 05:31:11 10° WSW 05:37:00 47° NW 05:43:14 10° NNE
NOSS 3-4 (C) 3.8 05:31:14 10° WSW 05:37:05 47° NW 05:43:19 10° NNE
Cosmos 2341 Rocket 4.0 05:31:34 10° SSW 05:37:46 66° W 05:43:58 10° N
